CZ-3C DEB, 40201

Orbit data source: Space-Track

CZ-3C DEB, 40201 is space debris in HEO originally from a launch on Fri, 24 Feb 2012 UTC launched from the Xichang Space Center, China (XSC). Debris objects in space refer to the collection of defunct objects orbiting the Earth. Examples of debris include non-operational satellites, rocket bodies, and fragments generated from explosions, collisions, or faulty payload assembly.

Loading next visibility...
Identifier
40201, 2012-008L
Orbit
HEO
Country
Flag of CNCN / PRC
Related business
Manufacturer
CALT
Mission
Spacecraft
Bus & Motor
Unknown
Mass
Unknown
Launch date (UTC)
2012-02-24 (14 years ago)
Launch vehicle
Unknown
Launch site
Xichang Space Center, China (XSC)
Object type
Payload
Rocket body
Debris
Shape & HBR
Unknown shape, 0.3 m
Radar Cross Section
Medium (>0.1 m² and <1 m²)

Expand to show TLE details & history
Last TLE update: 10 hours ago

TLE from 10 hours ago
0 CZ-3C DEB
1 40201U 12008L   26235.83899436 -.00000291  00000-0 -14635-2 0  9991
2 40201  21.4516  53.8974 7090263 118.5022 328.6813  2.24772785104718
Epoch: 2026-08-23T20:08Z
TLE epoch observation values (Epoch: 2026-08-23T20:08:09.112Z)
Latitude
-0.00006°
Longitude
139.81821°
Altitude
12,040.826 km
Speed
5.205 km/s
True Right ascension
03h 35m 56s
True Declination
0° 00' 00"
Sunlit
Object was in daylight at epoch
Visualization orbit readout
Latitude
Unknown
Longitude
Unknown
Altitude
Unknown
Speed
Unknown
Apparent Right ascension
Unknown
Apparent Declination
Unknown
Sunlit
N/A
Visualization observer readout
Local Sidereal Time
21:34:05
Azimuth
Unknown
Elevation
Unknown
Doppler factor
Unknown
Orbital elements
Apogee altitude
35,700.37 km
Perigee altitude
786.024 km
Semi-major axis
24,621.334 km
Eccentricity
0.70903
Inclination
21.4516°
RAAN
53.8974°
Arg. of periapsis
118.5022°
True anomaly
241.65005°
Mean anomaly
328.6813°
Eccentric anomaly
290.67281°
Mean motion
0.56179 °/min
Orbital period
640.81 mins
BSTAR
-0.0014635
Loading maneuver chart data...
Computing Atmospheric mass density...
Loading historical data...
Loading historical data...
Loading historical data...
Loading historical data...
Loading historical data...
Loading historical data...
Loading historical data...

Documentation

Showing up to 5 results
|